DAH5361 FAOR-DTNH

Flight info

Callsign DAH5361
Flight time N/A
Altitude 23000
Route NESAN Q40 EVIPI Q16 ETMIT/N0487F310 UM214 OKLAP/N0485F320 UM214 LINUT/N0480F340 UM214 ILDOR UG655 GARIN/N0464F320 G655 SEB/N0464F360 A403 GRT R845 IZD M727 ZAW R845 REXOS
Aircraft A306/H-SDE3FGHIRWY/LB1

Departure

Time N/A
Airport O.R. Tambo International Airport (FAOR)

Arrival

Time 2026-04-28 19:56
Airport Enfidha - Hammamet International Airport (DTNH)
Time Latitude Longitude Altitude Speed Heading
2026-04-28 15:51 8.78891 20.46769 34897 ft 487 kts 347°
2026-04-28 15:52 8.85479 20.45194 34897 ft 486 kts 347°
2026-04-28 15:52 8.92057 20.43618 34896 ft 485 kts 346°
2026-04-28 15:53 8.98631 20.42041 34897 ft 485 kts 346°
2026-04-28 15:53 9.05203 20.40464 34897 ft 485 kts 346°
2026-04-28 15:54 9.10668 20.39153 34897 ft 485 kts 346°
2026-04-28 15:54 9.17240 20.37577 34897 ft 486 kts 346°
2026-04-28 15:55 9.24877 20.35744 34878 ft 485 kts 346°
2026-04-28 15:55 9.31435 20.34170 34878 ft 484 kts 346°
2026-04-28 15:56 9.36936 20.32846 34878 ft 484 kts 346°
2026-04-28 15:56 9.43495 20.31270 34878 ft 485 kts 346°
2026-04-28 15:57 9.50052 20.29695 34881 ft 484 kts 346°
2026-04-28 15:57 9.56600 20.28120 34878 ft 483 kts 346°
2026-04-28 15:58 9.63146 20.26541 34878 ft 483 kts 346°
2026-04-28 15:58 9.69690 20.24969 34878 ft 483 kts 346°
2026-04-28 15:59 9.76239 20.23395 34881 ft 483 kts 346°
2026-04-28 15:59 9.82782 20.21818 34878 ft 483 kts 346°
2026-04-28 16:00 9.89328 20.20237 34878 ft 483 kts 346°
2026-04-28 16:00 9.95873 20.18660 34882 ft 483 kts 346°
2026-04-28 16:01 10.02416 20.17083 34878 ft 483 kts 346°
2026-04-28 16:01 10.08961 20.15504 34881 ft 483 kts 346°
2026-04-28 16:02 10.15461 20.13935 34880 ft 483 kts 346°
2026-04-28 16:02 10.22003 20.12355 34878 ft 483 kts 346°
2026-04-28 16:03 10.28545 20.10774 34878 ft 483 kts 346°
2026-04-28 16:03 10.35087 20.09193 34879 ft 483 kts 346°
2026-04-28 16:04 10.41630 20.07611 34878 ft 483 kts 346°
2026-04-28 16:04 10.48172 20.06029 34878 ft 483 kts 346°
2026-04-28 16:05 10.54711 20.04444 34878 ft 483 kts 346°
2026-04-28 16:05 10.61246 20.02862 34869 ft 483 kts 346°
2026-04-28 16:06 10.67781 20.01281 34869 ft 482 kts 346°
2026-04-28 16:06 10.74308 19.99699 34869 ft 482 kts 346°
2026-04-28 16:07 10.80840 19.98115 34869 ft 482 kts 346°
2026-04-28 16:08 10.90632 19.95739 34869 ft 482 kts 346°
2026-04-28 16:08 10.97158 19.94155 34869 ft 482 kts 346°
2026-04-28 16:09 11.06944 19.91781 34869 ft 482 kts 346°
2026-04-28 16:10 11.16728 19.89402 34872 ft 482 kts 346°
2026-04-28 16:10 11.26512 19.87023 34869 ft 481 kts 346°
2026-04-28 16:11 11.39541 19.83853 34869 ft 481 kts 346°
2026-04-28 16:12 11.49321 19.81474 34869 ft 481 kts 346°
2026-04-28 16:13 11.59082 19.79092 34869 ft 481 kts 346°
2026-04-28 16:14 11.72171 19.76208 34869 ft 482 kts 348°
2026-04-28 16:15 11.85337 19.73660 34869 ft 482 kts 348°
2026-04-28 16:15 11.91911 19.72362 34869 ft 481 kts 348°
2026-04-28 16:16 12.01774 19.70399 34869 ft 481 kts 348°
2026-04-28 16:17 12.11635 19.68436 34869 ft 481 kts 348°
2026-04-28 16:17 12.18158 19.67139 34873 ft 481 kts 348°
2026-04-28 16:18 12.24726 19.65832 34880 ft 481 kts 348°
2026-04-28 16:18 12.31297 19.64524 34878 ft 481 kts 348°
2026-04-28 16:19 12.37859 19.63217 34878 ft 481 kts 348°
2026-04-28 16:19 12.44425 19.61907 34878 ft 481 kts 348°
2026-04-28 16:20 12.50987 19.60599 34878 ft 480 kts 348°
2026-04-28 16:20 12.57550 19.59291 34878 ft 480 kts 348°
2026-04-28 16:21 12.64106 19.57981 34878 ft 480 kts 348°
2026-04-28 16:21 12.70666 19.56666 34878 ft 480 kts 348°
2026-04-28 16:22 12.77219 19.55356 34878 ft 480 kts 348°
2026-04-28 16:22 12.83767 19.54046 34878 ft 480 kts 348°
2026-04-28 16:23 12.90318 19.52738 34878 ft 479 kts 348°
2026-04-28 16:23 12.96867 19.51427 34878 ft 479 kts 348°
2026-04-28 16:24 13.03410 19.50119 34879 ft 479 kts 348°
2026-04-28 16:24 13.09958 19.48806 34878 ft 479 kts 348°
2026-04-28 16:25 13.16509 19.47494 34878 ft 479 kts 348°
2026-04-28 16:25 13.23047 19.46182 34878 ft 479 kts 348°
2026-04-28 16:26 13.29591 19.44866 34878 ft 479 kts 348°
2026-04-28 16:26 13.36087 19.43558 34878 ft 479 kts 348°
2026-04-28 16:27 13.42623 19.42245 34878 ft 479 kts 348°
2026-04-28 16:28 13.52431 19.40275 34878 ft 479 kts 348°
2026-04-28 16:28 13.58965 19.38957 34878 ft 479 kts 348°
2026-04-28 16:29 13.68769 19.36984 34874 ft 479 kts 348°
2026-04-28 16:30 13.78574 19.35010 34869 ft 479 kts 348°
2026-04-28 16:30 13.85103 19.33691 34869 ft 478 kts 348°
2026-04-28 16:31 13.91642 19.32372 34869 ft 479 kts 348°
2026-04-28 16:31 13.98175 19.31054 34869 ft 478 kts 348°
2026-04-28 16:32 14.04709 19.29736 34869 ft 478 kts 348°
2026-04-28 16:32 14.14500 19.27758 34869 ft 478 kts 348°
2026-04-28 16:33 14.18869 19.26875 34869 ft 478 kts 348°
2026-04-28 16:33 14.27551 19.25116 34869 ft 478 kts 347°
2026-04-28 16:34 14.34074 19.23794 34869 ft 478 kts 347°
2026-04-28 16:34 14.40600 19.22474 34869 ft 478 kts 347°
2026-04-28 16:35 14.47120 19.21155 34869 ft 478 kts 347°
2026-04-28 16:35 14.53639 19.19832 34869 ft 477 kts 347°
2026-04-28 16:36 14.60160 19.18505 34872 ft 478 kts 347°
2026-04-28 16:36 14.66640 19.17187 34869 ft 477 kts 347°
2026-04-28 16:37 14.73156 19.15865 34869 ft 477 kts 347°
2026-04-28 16:38 14.82927 19.13878 34869 ft 477 kts 347°
2026-04-28 16:38 14.89445 19.12554 34869 ft 477 kts 347°
2026-04-28 16:39 14.95953 19.11227 34869 ft 477 kts 347°
2026-04-28 16:39 15.02466 19.09900 34871 ft 477 kts 347°
2026-04-28 16:40 15.08978 19.08573 34869 ft 477 kts 347°
2026-04-28 16:40 15.15488 19.07241 34869 ft 477 kts 347°
2026-04-28 16:41 15.21996 19.05914 34869 ft 477 kts 347°
2026-04-28 16:41 15.28507 19.04582 34871 ft 477 kts 347°
2026-04-28 16:42 15.33908 19.03477 34869 ft 476 kts 347°
2026-04-28 16:42 15.40415 19.02144 34869 ft 477 kts 347°
2026-04-28 16:43 15.47971 19.00593 34869 ft 476 kts 347°
2026-04-28 16:43 15.53423 18.99478 34862 ft 476 kts 347°
2026-04-28 16:44 15.59921 18.98147 34860 ft 476 kts 347°
2026-04-28 16:44 15.66380 18.96821 34860 ft 476 kts 347°
2026-04-28 16:45 15.72881 18.95486 34860 ft 476 kts 347°
2026-04-28 16:45 15.79375 18.94151 34860 ft 476 kts 347°
2026-04-28 16:46 15.85871 18.92816 34860 ft 476 kts 347°
2026-04-28 16:46 15.92370 18.91479 34860 ft 476 kts 347°
2026-04-28 16:47 15.98873 18.90139 34860 ft 476 kts 347°
2026-04-28 16:47 16.05365 18.88803 34860 ft 475 kts 346°
2026-04-28 16:48 16.11847 18.87469 34860 ft 474 kts 346°
2026-04-28 16:48 16.18312 18.86135 34859 ft 474 kts 346°
2026-04-28 16:49 16.24778 18.84799 34860 ft 474 kts 346°
2026-04-28 16:49 16.31243 18.83464 34861 ft 473 kts 346°
2026-04-28 16:50 16.37704 18.82128 34860 ft 473 kts 346°
2026-04-28 16:50 16.44165 18.80792 34859 ft 473 kts 346°
2026-04-28 16:51 16.50614 18.79456 34860 ft 473 kts 346°
2026-04-28 16:51 16.57061 18.78121 34859 ft 472 kts 346°
2026-04-28 16:52 16.63510 18.76785 34860 ft 472 kts 346°
2026-04-28 16:52 16.69952 18.75449 34860 ft 472 kts 346°
2026-04-28 16:53 16.76397 18.74111 34860 ft 472 kts 346°
2026-04-28 16:53 16.82834 18.72775 34860 ft 471 kts 346°
2026-04-28 16:54 16.89262 18.71438 34859 ft 471 kts 346°
2026-04-28 16:54 16.95686 18.70103 34860 ft 470 kts 346°
2026-04-28 16:55 17.02104 18.68767 34860 ft 470 kts 346°
2026-04-28 16:55 17.08518 18.67429 34860 ft 470 kts 346°
2026-04-28 16:56 17.14928 18.66093 34859 ft 470 kts 346°
2026-04-28 16:56 17.21332 18.64759 34859 ft 469 kts 346°
2026-04-28 16:57 17.27684 18.63434 34853 ft 469 kts 346°
2026-04-28 16:57 17.34076 18.62099 34869 ft 468 kts 346°
2026-04-28 16:58 17.40462 18.60766 34869 ft 468 kts 345°
2026-04-28 16:58 17.46840 18.59431 34869 ft 467 kts 345°
2026-04-28 16:59 17.53211 18.58095 34869 ft 467 kts 345°
2026-04-28 16:59 17.59585 18.56761 34869 ft 466 kts 345°
2026-04-28 17:00 17.65945 18.55429 34869 ft 466 kts 345°
2026-04-28 17:00 17.72308 18.54095 34871 ft 466 kts 345°
2026-04-28 17:01 17.78658 18.52761 34869 ft 465 kts 345°
2026-04-28 17:01 17.85008 18.51428 34869 ft 465 kts 345°
2026-04-28 17:02 17.91351 18.50097 34869 ft 465 kts 345°
2026-04-28 17:02 17.97691 18.48763 34869 ft 465 kts 345°
2026-04-28 17:03 18.07202 18.46760 35061 ft 464 kts 345°
2026-04-28 17:03 18.10361 18.46094 35236 ft 463 kts 345°
2026-04-28 17:03 18.13477 18.45437 35373 ft 463 kts 345°
2026-04-28 17:04 18.19790 18.44105 35636 ft 463 kts 345°
2026-04-28 17:04 18.22942 18.43440 35746 ft 463 kts 345°
2026-04-28 17:05 18.29256 18.42106 36022 ft 462 kts 345°
2026-04-28 17:05 18.32409 18.41439 36127 ft 463 kts 345°
2026-04-28 17:05 18.35568 18.40771 36254 ft 463 kts 345°
2026-04-28 17:06 18.41885 18.39435 36484 ft 463 kts 345°
2026-04-28 17:06 18.45047 18.38766 36590 ft 464 kts 345°
2026-04-28 17:06 18.51356 18.37430 36860 ft 461 kts 345°
2026-04-28 17:07 18.57624 18.36103 36867 ft 457 kts 345°
2026-04-28 17:07 18.63839 18.34790 36879 ft 455 kts 344°
2026-04-28 17:08 18.70052 18.33472 36881 ft 455 kts 344°
2026-04-28 17:08 18.76257 18.32152 36877 ft 455 kts 344°
2026-04-28 17:09 18.82468 18.30830 36879 ft 455 kts 344°
2026-04-28 17:09 18.88673 18.29509 36878 ft 455 kts 344°
2026-04-28 17:10 18.94879 18.28190 36882 ft 455 kts 344°
2026-04-28 17:10 19.01076 18.26874 36879 ft 454 kts 343°
2026-04-28 17:11 19.07283 18.25550 36878 ft 454 kts 343°
2026-04-28 17:11 19.13477 18.24231 36879 ft 454 kts 343°
2026-04-28 17:12 19.19667 18.22908 36880 ft 454 kts 343°
2026-04-28 17:12 19.25859 18.21581 36880 ft 454 kts 343°
2026-04-28 17:13 19.32010 18.20264 36874 ft 454 kts 343°
2026-04-28 17:13 19.38202 18.18942 36878 ft 454 kts 343°
2026-04-28 17:14 19.44392 18.17617 36877 ft 454 kts 343°
2026-04-28 17:14 19.50578 18.16291 36879 ft 454 kts 343°
2026-04-28 17:15 19.56770 18.14964 36881 ft 454 kts 343°
2026-04-28 17:15 19.62957 18.13634 36891 ft 454 kts 343°
2026-04-28 17:16 19.69148 18.12306 36889 ft 454 kts 343°
2026-04-28 17:16 19.75332 18.10980 36886 ft 453 kts 342°
2026-04-28 17:17 19.81518 18.09648 36891 ft 454 kts 342°
2026-04-28 17:17 19.87703 18.08315 36888 ft 453 kts 342°
2026-04-28 17:18 19.93882 18.06985 36884 ft 453 kts 342°
2026-04-28 17:18 20.00061 18.05652 36886 ft 453 kts 342°
2026-04-28 17:19 20.06246 18.04315 36903 ft 453 kts 342°
2026-04-28 17:19 20.12428 18.02980 36903 ft 453 kts 342°
2026-04-28 17:20 20.17392 18.01424 36903 ft 444 kts 332°
2026-04-28 17:20 20.23972 17.98380 36902 ft 443 kts 330°
2026-04-28 17:21 20.29592 17.95606 36902 ft 442 kts 329°
2026-04-28 17:22 20.37959 17.91468 36907 ft 442 kts 329°
2026-04-28 17:22 20.43512 17.88740 36907 ft 442 kts 329°
2026-04-28 17:23 20.51886 17.84624 36901 ft 442 kts 329°
2026-04-28 17:23 20.57471 17.81879 36905 ft 441 kts 329°
2026-04-28 17:24 20.63050 17.79135 36913 ft 441 kts 329°
2026-04-28 17:24 20.68620 17.76391 36904 ft 441 kts 329°
2026-04-28 17:25 20.76968 17.72276 36900 ft 440 kts 329°
2026-04-28 17:26 20.82520 17.69536 36924 ft 439 kts 329°
2026-04-28 17:26 20.88065 17.66796 36928 ft 439 kts 329°
2026-04-28 17:27 20.93609 17.64055 36927 ft 438 kts 329°
2026-04-28 17:27 20.99141 17.61319 36910 ft 438 kts 329°
2026-04-28 17:28 21.04663 17.58583 36910 ft 437 kts 328°
2026-04-28 17:28 21.12941 17.54482 36920 ft 437 kts 328°
2026-04-28 17:29 21.18448 17.51750 36934 ft 436 kts 328°
2026-04-28 17:30 21.26706 17.47646 36936 ft 436 kts 328°
2026-04-28 17:30 21.34024 17.44005 36928 ft 435 kts 328°
2026-04-28 17:31 21.43187 17.39427 36942 ft 436 kts 328°
2026-04-28 17:32 21.50514 17.35788 36936 ft 435 kts 328°
2026-04-28 17:32 21.56008 17.33053 36939 ft 435 kts 328°
2026-04-28 17:33 21.61486 17.30320 36932 ft 433 kts 328°
2026-04-28 17:33 21.66029 17.28046 36936 ft 433 kts 328°
2026-04-28 17:34 21.72422 17.24843 36933 ft 434 kts 328°
2026-04-28 17:34 21.77887 17.22100 36946 ft 433 kts 328°
2026-04-28 17:35 21.83354 17.19365 36943 ft 433 kts 328°
2026-04-28 17:35 21.88822 17.16625 36946 ft 434 kts 328°
2026-04-28 17:36 21.94282 17.13887 36945 ft 433 kts 328°
2026-04-28 17:36 21.99741 17.11140 36943 ft 433 kts 328°
2026-04-28 17:37 22.05188 17.08377 36943 ft 431 kts 327°
2026-04-28 17:37 22.10588 17.05621 36944 ft 429 kts 327°
2026-04-28 17:38 22.15970 17.02866 36943 ft 428 kts 327°
2026-04-28 17:38 22.21349 17.00112 36942 ft 428 kts 327°
2026-04-28 17:39 22.26692 16.97378 36944 ft 428 kts 327°
2026-04-28 17:40 22.34772 16.93239 36952 ft 428 kts 327°
2026-04-28 17:40 22.40157 16.90479 36952 ft 428 kts 327°
2026-04-28 17:41 22.45534 16.87722 36952 ft 427 kts 327°
2026-04-28 17:41 22.50899 16.84965 36953 ft 427 kts 327°
2026-04-28 17:42 22.56262 16.82207 36953 ft 427 kts 327°
2026-04-28 17:42 22.61628 16.79446 36952 ft 427 kts 327°
2026-04-28 17:43 22.66984 16.76686 36953 ft 427 kts 327°
2026-04-28 17:43 22.72346 16.73925 36952 ft 426 kts 327°
2026-04-28 17:44 22.77703 16.71162 36953 ft 426 kts 327°
2026-04-28 17:44 22.83055 16.68398 36953 ft 426 kts 327°
2026-04-28 17:45 22.88403 16.65637 36954 ft 426 kts 327°
2026-04-28 17:45 22.93749 16.62872 36961 ft 425 kts 327°
2026-04-28 17:46 22.99092 16.60105 36963 ft 425 kts 327°
2026-04-28 17:46 23.04423 16.57340 36962 ft 425 kts 327°
2026-04-28 17:47 23.09763 16.54572 36962 ft 425 kts 327°
2026-04-28 17:47 23.15088 16.51810 36961 ft 423 kts 327°
2026-04-28 17:48 23.20395 16.49054 36962 ft 423 kts 326°
2026-04-28 17:48 23.25705 16.46289 36961 ft 423 kts 326°
2026-04-28 17:49 23.31004 16.43529 36962 ft 422 kts 326°
2026-04-28 17:49 23.36308 16.40769 36962 ft 422 kts 326°
2026-04-28 17:50 23.41570 16.38027 36970 ft 421 kts 326°
2026-04-28 17:50 23.46882 16.35258 36973 ft 421 kts 326°
2026-04-28 17:51 23.52122 16.32517 36970 ft 421 kts 326°
2026-04-28 17:51 23.57402 16.29757 36970 ft 421 kts 326°
2026-04-28 17:52 23.62680 16.26998 36972 ft 421 kts 326°
2026-04-28 17:52 23.70596 16.22851 36973 ft 420 kts 326°
2026-04-28 17:53 23.75857 16.20092 36971 ft 419 kts 326°
2026-04-28 17:53 23.81110 16.17337 36971 ft 419 kts 326°
2026-04-28 17:54 23.86360 16.14579 36970 ft 419 kts 326°
2026-04-28 17:54 23.91610 16.11819 36970 ft 418 kts 326°
2026-04-28 17:55 23.96853 16.09056 36998 ft 418 kts 326°
2026-04-28 17:55 24.02097 16.06294 36999 ft 419 kts 326°
2026-04-28 17:56 24.07348 16.03527 36999 ft 419 kts 326°
2026-04-28 17:56 24.12594 16.00759 36999 ft 419 kts 326°
2026-04-28 17:57 24.17841 15.97988 36999 ft 419 kts 326°
2026-04-28 17:57 24.23086 15.95217 36999 ft 419 kts 326°
2026-04-28 17:58 24.28332 15.92444 36999 ft 418 kts 326°
2026-04-28 17:58 24.33569 15.89668 36999 ft 418 kts 326°
2026-04-28 17:59 24.38805 15.86892 36999 ft 418 kts 326°
2026-04-28 17:59 24.44043 15.84111 36998 ft 418 kts 326°
2026-04-28 18:00 24.49272 15.81332 36999 ft 417 kts 326°
2026-04-28 18:00 24.54500 15.78549 36999 ft 417 kts 326°
2026-04-28 18:01 24.59721 15.75771 36998 ft 417 kts 326°
2026-04-28 18:01 24.64903 15.73015 36999 ft 417 kts 326°
2026-04-28 18:02 24.70126 15.70231 36998 ft 417 kts 326°
2026-04-28 18:02 24.75339 15.67447 36999 ft 417 kts 326°
2026-04-28 18:03 24.80557 15.64661 36999 ft 416 kts 326°
2026-04-28 18:03 24.85766 15.61882 36999 ft 416 kts 326°
2026-04-28 18:04 24.90976 15.59108 36999 ft 416 kts 326°
2026-04-28 18:04 24.96190 15.56337 36996 ft 416 kts 326°
2026-04-28 18:05 25.00528 15.54026 37002 ft 417 kts 326°
2026-04-28 18:05 25.06633 15.50776 36999 ft 416 kts 325°
2026-04-28 18:06 25.11852 15.47992 37010 ft 417 kts 325°
2026-04-28 18:06 25.17082 15.45198 37007 ft 418 kts 325°
2026-04-28 18:07 25.22320 15.42397 37008 ft 418 kts 325°
2026-04-28 18:07 25.27549 15.39600 37008 ft 418 kts 325°
2026-04-28 18:08 25.32778 15.36801 36999 ft 417 kts 325°
2026-04-28 18:08 25.38002 15.33998 36999 ft 417 kts 325°
2026-04-28 18:09 25.43222 15.31196 36999 ft 417 kts 325°
2026-04-28 18:09 25.48413 15.28407 37000 ft 418 kts 325°
2026-04-28 18:10 25.53634 15.25599 36999 ft 417 kts 325°
2026-04-28 18:10 25.58850 15.22791 36999 ft 417 kts 325°
2026-04-28 18:11 25.64074 15.19975 36999 ft 418 kts 325°
2026-04-28 18:11 25.69298 15.17156 36999 ft 418 kts 325°
2026-04-28 18:12 25.74524 15.14337 36999 ft 418 kts 325°
2026-04-28 18:12 25.79748 15.11517 36999 ft 418 kts 325°
2026-04-28 18:13 25.84970 15.08691 36999 ft 418 kts 325°
2026-04-28 18:13 25.90194 15.05863 36998 ft 418 kts 325°
2026-04-28 18:14 25.95415 15.03031 36990 ft 418 kts 325°
2026-04-28 18:14 26.00637 15.00202 36989 ft 418 kts 325°
2026-04-28 18:15 26.05854 14.97369 36989 ft 416 kts 325°
2026-04-28 18:15 26.11048 14.94547 36989 ft 415 kts 325°
2026-04-28 18:16 26.16201 14.91740 36989 ft 415 kts 325°
2026-04-28 18:16 26.21396 14.88909 36991 ft 416 kts 325°
2026-04-28 18:17 26.26591 14.86075 36989 ft 416 kts 325°
2026-04-28 18:17 26.31791 14.83232 36990 ft 416 kts 325°
2026-04-28 18:18 26.36991 14.80393 36990 ft 416 kts 325°
2026-04-28 18:18 26.40468 14.78494 36989 ft 416 kts 325°
2026-04-28 18:19 26.47386 14.74709 36990 ft 416 kts 325°
2026-04-28 18:19 26.52581 14.71862 36989 ft 416 kts 325°
2026-04-28 18:20 26.56930 14.69477 36990 ft 416 kts 325°
2026-04-28 18:20 26.62124 14.66624 36981 ft 416 kts 325°
2026-04-28 18:21 26.67315 14.63771 36984 ft 416 kts 325°
2026-04-28 18:21 26.72500 14.60919 36978 ft 416 kts 325°
2026-04-28 18:22 26.77659 14.58078 36981 ft 416 kts 325°
2026-04-28 18:22 26.82849 14.55218 36978 ft 416 kts 325°
2026-04-28 18:23 26.88038 14.52357 36982 ft 416 kts 325°
2026-04-28 18:23 26.93229 14.49489 36981 ft 416 kts 325°
2026-04-28 18:24 26.97554 14.47125 36982 ft 418 kts 327°
2026-04-28 18:24 27.01269 14.45663 36981 ft 429 kts 335°
2026-04-28 18:24 27.04175 14.44837 36982 ft 431 kts 337°
2026-04-28 18:25 27.10044 14.43366 36986 ft 434 kts 338°
2026-04-28 18:26 27.18900 14.41264 36980 ft 433 kts 338°
2026-04-28 18:26 27.24790 14.39838 36980 ft 433 kts 338°
2026-04-28 18:27 27.30680 14.38405 36981 ft 433 kts 338°
2026-04-28 18:27 27.36563 14.36964 36978 ft 433 kts 338°
2026-04-28 18:28 27.42452 14.35520 36979 ft 433 kts 338°
2026-04-28 18:28 27.48342 14.34077 36980 ft 433 kts 338°
2026-04-28 18:29 27.54235 14.32612 36979 ft 434 kts 338°
2026-04-28 18:29 27.60131 14.31121 36979 ft 434 kts 338°
2026-04-28 18:30 27.66026 14.29625 36978 ft 434 kts 338°
2026-04-28 18:30 27.71917 14.28135 36981 ft 434 kts 338°
2026-04-28 18:31 27.77766 14.26660 36981 ft 434 kts 338°
2026-04-28 18:31 27.83659 14.25165 36985 ft 434 kts 338°
2026-04-28 18:32 27.89553 14.23676 36982 ft 434 kts 338°
2026-04-28 18:32 27.95435 14.22170 36981 ft 434 kts 338°
2026-04-28 18:33 28.01326 14.20679 36984 ft 435 kts 338°
2026-04-28 18:33 28.07236 14.19164 36971 ft 434 kts 338°
2026-04-28 18:34 28.13134 14.17658 36970 ft 434 kts 338°
2026-04-28 18:34 28.19022 14.16159 36976 ft 434 kts 338°
2026-04-28 18:35 28.24921 14.14655 36969 ft 434 kts 338°
2026-04-28 18:35 28.30814 14.13146 36971 ft 434 kts 338°
2026-04-28 18:36 28.36702 14.11637 36969 ft 434 kts 338°
2026-04-28 18:36 28.42598 14.10125 36971 ft 434 kts 338°
2026-04-28 18:37 28.48473 14.08615 36971 ft 433 kts 338°
2026-04-28 18:37 28.54343 14.07104 36971 ft 433 kts 338°
2026-04-28 18:38 28.60223 14.05591 36970 ft 433 kts 338°
2026-04-28 18:38 28.66100 14.04084 36970 ft 433 kts 338°
2026-04-28 18:39 28.71986 14.02565 36972 ft 433 kts 338°
2026-04-28 18:39 28.77856 14.01041 36970 ft 433 kts 338°
2026-04-28 18:40 28.83731 13.99520 36967 ft 432 kts 339°
2026-04-28 18:40 28.89604 13.98007 36963 ft 433 kts 338°
2026-04-28 18:41 28.95482 13.96489 36964 ft 433 kts 338°
2026-04-28 18:41 29.01363 13.94958 36962 ft 433 kts 338°
2026-04-28 18:42 29.07245 13.93419 36962 ft 433 kts 338°
2026-04-28 18:42 29.13122 13.91890 36962 ft 433 kts 339°
2026-04-28 18:43 29.19006 13.90361 36962 ft 433 kts 339°
2026-04-28 18:43 29.24880 13.88834 36962 ft 433 kts 339°
2026-04-28 18:44 29.30755 13.87301 36961 ft 433 kts 339°
2026-04-28 18:44 29.39558 13.84999 36961 ft 432 kts 339°
2026-04-28 18:45 29.45375 13.83475 36964 ft 432 kts 339°
2026-04-28 18:45 29.51241 13.81939 36962 ft 432 kts 339°
2026-04-28 18:46 29.57104 13.80401 36965 ft 432 kts 339°
2026-04-28 18:46 29.62962 13.78862 36960 ft 431 kts 339°
2026-04-28 18:47 29.68812 13.77321 36960 ft 431 kts 339°
2026-04-28 18:47 29.74660 13.75782 36954 ft 431 kts 339°
2026-04-28 18:48 29.80508 13.74242 36952 ft 431 kts 339°
2026-04-28 18:48 29.86360 13.72697 36952 ft 431 kts 339°
2026-04-28 18:49 29.90276 13.71662 36952 ft 431 kts 339°
2026-04-28 18:49 29.98066 13.69601 36952 ft 432 kts 339°
2026-04-28 18:50 30.03914 13.68051 36954 ft 431 kts 339°
2026-04-28 18:50 30.09753 13.66504 36953 ft 430 kts 339°
2026-04-28 18:51 30.15590 13.64954 36952 ft 431 kts 339°
2026-04-28 18:51 30.21397 13.63407 36952 ft 431 kts 339°
2026-04-28 18:52 30.27244 13.61851 36953 ft 431 kts 339°
2026-04-28 18:52 30.33093 13.60292 36952 ft 431 kts 339°
2026-04-28 18:53 30.38899 13.58612 36952 ft 426 kts 334°
2026-04-28 18:53 30.44318 13.56009 36953 ft 420 kts 329°
2026-04-28 18:54 30.49631 13.53178 36948 ft 420 kts 328°
2026-04-28 18:54 30.54925 13.50297 36944 ft 421 kts 328°
2026-04-28 18:55 30.59331 13.47903 36943 ft 421 kts 328°
2026-04-28 18:55 30.65544 13.44543 36944 ft 421 kts 328°
2026-04-28 18:56 30.70856 13.41671 36944 ft 421 kts 328°
2026-04-28 18:56 30.76170 13.38796 36945 ft 422 kts 328°
2026-04-28 18:57 30.81484 13.35916 36944 ft 422 kts 328°
2026-04-28 18:57 30.86804 13.33028 36943 ft 422 kts 328°
2026-04-28 18:58 30.92119 13.30137 36942 ft 422 kts 328°
2026-04-28 18:58 30.97442 13.27242 36944 ft 423 kts 328°
2026-04-28 18:59 31.02773 13.24338 36944 ft 423 kts 328°
2026-04-28 18:59 31.08101 13.21433 36943 ft 423 kts 328°
2026-04-28 19:00 31.13423 13.18525 36944 ft 422 kts 328°
2026-04-28 19:00 31.18749 13.15613 36943 ft 422 kts 328°
2026-04-28 19:01 31.24069 13.12699 36944 ft 422 kts 328°
2026-04-28 19:01 31.29391 13.09781 36943 ft 423 kts 328°
2026-04-28 19:02 31.34717 13.06857 36943 ft 423 kts 327°
2026-04-28 19:02 31.40042 13.03931 36943 ft 423 kts 327°
2026-04-28 19:03 31.45470 13.01194 36943 ft 431 kts 334°
2026-04-28 19:03 31.51307 12.99376 36943 ft 436 kts 338°
2026-04-28 19:04 31.57218 12.97766 36943 ft 436 kts 339°
2026-04-28 19:04 31.63102 12.96200 36945 ft 436 kts 339°
2026-04-28 19:05 31.69021 12.94610 36941 ft 436 kts 339°
2026-04-28 19:05 31.74942 12.93004 36941 ft 436 kts 339°
2026-04-28 19:06 31.79857 12.91663 36945 ft 437 kts 339°
2026-04-28 19:06 31.86778 12.89771 36943 ft 437 kts 339°
2026-04-28 19:07 31.92708 12.88152 36943 ft 437 kts 339°
2026-04-28 19:07 31.97633 12.86805 36945 ft 437 kts 339°
2026-04-28 19:08 32.03559 12.85178 36941 ft 438 kts 339°
2026-04-28 19:08 32.09498 12.83547 36942 ft 439 kts 339°
2026-04-28 19:09 32.15445 12.81915 36943 ft 439 kts 339°
2026-04-28 19:09 32.21394 12.80283 36943 ft 439 kts 339°
2026-04-28 19:10 32.27359 12.78642 36943 ft 440 kts 339°
2026-04-28 19:10 32.33319 12.76997 36944 ft 440 kts 339°
2026-04-28 19:11 32.39275 12.75355 36935 ft 440 kts 339°
2026-04-28 19:11 32.45243 12.73708 36934 ft 440 kts 339°
2026-04-28 19:12 32.51212 12.72056 36935 ft 441 kts 339°
2026-04-28 19:12 32.57190 12.70396 36933 ft 441 kts 339°
2026-04-28 19:13 32.63164 12.68738 36933 ft 441 kts 339°
2026-04-28 19:13 32.69136 12.67077 36934 ft 442 kts 339°
2026-04-28 19:14 32.75069 12.65250 36933 ft 435 kts 332°
2026-04-28 19:14 32.80315 12.62013 36934 ft 418 kts 316°
2026-04-28 19:15 32.84809 12.57756 36934 ft 415 kts 313°
2026-04-28 19:15 32.88479 12.54024 36935 ft 415 kts 312°
2026-04-28 19:16 32.93563 12.48801 36943 ft 415 kts 312°
2026-04-28 19:16 32.97947 12.44333 36944 ft 415 kts 312°
2026-04-28 19:17 33.02347 12.39860 36943 ft 416 kts 312°
2026-04-28 19:17 33.06741 12.35394 36943 ft 415 kts 312°
2026-04-28 19:18 33.11144 12.30913 36944 ft 416 kts 312°
2026-04-28 19:18 33.15541 12.26429 36944 ft 416 kts 312°
2026-04-28 19:19 33.19946 12.21929 36944 ft 417 kts 312°
2026-04-28 19:19 33.24351 12.17426 36943 ft 417 kts 312°
2026-04-28 19:20 33.28915 12.13113 36946 ft 426 kts 321°
2026-04-28 19:20 33.34087 12.09588 36953 ft 429 kts 323°
2026-04-28 19:21 33.39325 12.06129 36952 ft 430 kts 323°
2026-04-28 19:21 33.44565 12.02680 36953 ft 430 kts 323°
2026-04-28 19:22 33.48917 11.99811 36953 ft 430 kts 323°
2026-04-28 19:22 33.55063 11.95753 36953 ft 433 kts 323°
2026-04-28 19:23 33.60340 11.92266 36952 ft 433 kts 323°
2026-04-28 19:23 33.65619 11.88776 36952 ft 433 kts 322°
2026-04-28 19:24 33.70891 11.85280 36953 ft 433 kts 322°
2026-04-28 19:24 33.76162 11.81781 36953 ft 433 kts 322°
2026-04-28 19:25 33.81427 11.78281 36953 ft 433 kts 322°
2026-04-28 19:25 33.86695 11.74776 36953 ft 433 kts 322°
2026-04-28 19:26 33.91927 11.71287 36952 ft 433 kts 322°
2026-04-28 19:26 33.97185 11.67776 36953 ft 432 kts 322°
2026-04-28 19:27 34.02448 11.64260 36952 ft 432 kts 322°
2026-04-28 19:27 34.07712 11.60736 36953 ft 432 kts 322°
2026-04-28 19:28 34.12971 11.57211 36952 ft 433 kts 322°
2026-04-28 19:28 34.18233 11.53678 36953 ft 433 kts 322°
2026-04-28 19:29 34.22618 11.50730 36953 ft 434 kts 322°
2026-04-28 19:29 34.28778 11.46585 36953 ft 434 kts 322°
2026-04-28 19:30 34.34053 11.43028 36952 ft 434 kts 322°
2026-04-28 19:30 34.39321 11.39470 36953 ft 434 kts 322°
2026-04-28 19:31 34.44600 11.35901 36954 ft 435 kts 322°
2026-04-28 19:31 34.49867 11.32338 36528 ft 430 kts 322°
2026-04-28 19:32 34.52483 11.30566 35802 ft 430 kts 322°
2026-04-28 19:32 34.55095 11.28793 35016 ft 431 kts 322°
2026-04-28 19:32 34.57729 11.27001 34080 ft 436 kts 322°
2026-04-28 19:32 34.60383 11.25193 33126 ft 440 kts 322°
2026-04-28 19:33 34.63030 11.23392 32186 ft 443 kts 322°
2026-04-28 19:33 34.65764 11.21534 31198 ft 446 kts 322°
2026-04-28 19:33 34.68428 11.19723 30441 ft 443 kts 322°
2026-04-28 19:33 34.71100 11.17906 29830 ft 436 kts 322°
2026-04-28 19:34 34.73721 11.16125 29270 ft 428 kts 322°
2026-04-28 19:34 34.76333 11.14349 28698 ft 421 kts 322°
2026-04-28 19:34 34.78838 11.12639 28133 ft 415 kts 323°
2026-04-28 19:34 34.81364 11.10911 27586 ft 408 kts 323°
2026-04-28 19:35 34.83792 11.09251 27057 ft 403 kts 323°
2026-04-28 19:35 34.86221 11.07587 26520 ft 397 kts 324°
2026-04-28 19:35 34.88612 11.05950 26005 ft 392 kts 324°
2026-04-28 19:35 34.90972 11.04330 25501 ft 387 kts 324°
2026-04-28 19:36 34.93308 11.02726 24988 ft 383 kts 325°
2026-04-28 19:36 34.95615 11.01141 24480 ft 379 kts 326°
2026-04-28 19:36 34.97906 10.99567 23989 ft 376 kts 326°
2026-04-28 19:36 35.00173 10.98008 23497 ft 372 kts 326°
2026-04-28 19:37 35.02418 10.96464 22996 ft 369 kts 326°
2026-04-28 19:37 35.03920 10.95430 22656 ft 368 kts 326°
2026-04-28 19:37 35.06863 10.93404 21985 ft 365 kts 326°
2026-04-28 19:37 35.09067 10.91883 21468 ft 363 kts 326°
2026-04-28 19:38 35.11268 10.90367 20965 ft 362 kts 326°
2026-04-28 19:38 35.13449 10.88861 20458 ft 359 kts 326°
2026-04-28 19:38 35.15622 10.87362 19946 ft 357 kts 326°
2026-04-28 19:38 35.17778 10.85874 19438 ft 355 kts 327°
2026-04-28 19:39 35.19925 10.84391 18926 ft 354 kts 327°
2026-04-28 19:39 35.22059 10.82916 18415 ft 352 kts 327°
2026-04-28 19:39 35.24182 10.81448 17895 ft 349 kts 327°
2026-04-28 19:39 35.26292 10.79987 17377 ft 347 kts 327°
2026-04-28 19:40 35.28387 10.78537 16864 ft 345 kts 327°
2026-04-28 19:40 35.30464 10.77098 16380 ft 342 kts 327°
2026-04-28 19:40 35.32531 10.75664 15851 ft 340 kts 327°
2026-04-28 19:40 35.34578 10.74244 15345 ft 337 kts 327°
2026-04-28 19:41 35.36608 10.72834 14834 ft 335 kts 327°
2026-04-28 19:41 35.38627 10.71432 14336 ft 332 kts 327°
2026-04-28 19:41 35.40632 10.70036 13844 ft 330 kts 327°
2026-04-28 19:41 35.42620 10.68653 13343 ft 328 kts 328°
2026-04-28 19:42 35.44597 10.67277 12852 ft 325 kts 328°
2026-04-28 19:42 35.46559 10.65911 12363 ft 323 kts 328°
2026-04-28 19:42 35.48508 10.64553 11854 ft 321 kts 328°
2026-04-28 19:42 35.49793 10.63659 11514 ft 320 kts 328°
2026-04-28 19:43 35.52414 10.61828 11049 ft 332 kts 328°
2026-04-28 19:43 35.54448 10.60407 10988 ft 339 kts 329°
2026-04-28 19:43 35.56440 10.59019 10977 ft 319 kts 329°
2026-04-28 19:43 35.58343 10.57693 10592 ft 313 kts 328°
2026-04-28 19:44 35.60226 10.56374 10134 ft 310 kts 328°
2026-04-28 19:44 35.62078 10.55078 9843 ft 302 kts 329°
2026-04-28 19:44 35.63916 10.53788 9089 ft 310 kts 329°
2026-04-28 19:44 35.65831 10.52444 8414 ft 323 kts 329°
2026-04-28 19:45 35.67809 10.51060 8073 ft 330 kts 329°
2026-04-28 19:45 35.69809 10.49661 7997 ft 332 kts 329°
2026-04-28 19:45 35.71819 10.48254 7989 ft 333 kts 329°
2026-04-28 19:45 35.73878 10.46810 7998 ft 349 kts 329°
2026-04-28 19:46 35.76011 10.45311 7998 ft 355 kts 329°
2026-04-28 19:46 35.78167 10.43832 7757 ft 354 kts 333°
2026-04-28 19:46 35.80450 10.42699 7225 ft 354 kts 342°
2026-04-28 19:46 35.82804 10.41802 7018 ft 353 kts 343°
2026-04-28 19:47 35.85120 10.40930 6986 ft 353 kts 343°
2026-04-28 19:47 35.87468 10.40045 6991 ft 353 kts 343°
2026-04-28 19:47 35.89759 10.38960 6983 ft 353 kts 330°
2026-04-28 19:47 35.91636 10.37043 6891 ft 350 kts 310°
2026-04-28 19:48 35.92935 10.34541 6301 ft 345 kts 295°
2026-04-28 19:48 35.93953 10.31913 5945 ft 333 kts 293°
2026-04-28 19:48 35.94913 10.29379 5673 ft 319 kts 293°
2026-04-28 19:48 35.95835 10.26944 5448 ft 307 kts 293°
2026-04-28 19:49 35.96718 10.24598 5221 ft 296 kts 293°
2026-04-28 19:49 35.97572 10.22318 4869 ft 291 kts 293°
2026-04-28 19:49 35.98412 10.20068 4470 ft 287 kts 293°
2026-04-28 19:49 35.99243 10.17826 4064 ft 286 kts 293°
2026-04-28 19:50 36.01307 10.13729 3243 ft 282 kts 324°
2026-04-28 19:50 36.03051 10.12763 3014 ft 270 kts 353°
2026-04-28 19:50 36.04831 10.12907 2977 ft 247 kts 22°
2026-04-28 19:51 36.06184 10.14013 2980 ft 228 kts 54°
2026-04-28 19:51 36.06942 10.15690 2997 ft 223 kts 70°
2026-04-28 19:51 36.07489 10.17480 2992 ft 221 kts 73°
2026-04-28 19:51 36.07986 10.19221 2974 ft 207 kts 79°
2026-04-28 19:52 36.08053 10.20915 2967 ft 192 kts 97°
2026-04-28 19:52 36.07960 10.22501 2992 ft 179 kts 95°
2026-04-28 19:52 36.07883 10.24033 3006 ft 178 kts 96°
2026-04-28 19:52 36.07794 10.25553 2876 ft 177 kts 96°
2026-04-28 19:53 36.07766 10.27081 2814 ft 176 kts 92°
2026-04-28 19:53 36.07748 10.28561 2585 ft 170 kts 92°
2026-04-28 19:53 36.07693 10.30064 2168 ft 175 kts 93°
2026-04-28 19:53 36.07620 10.31536 1881 ft 171 kts 92°
2026-04-28 19:54 36.07567 10.32996 1596 ft 167 kts 89°
2026-04-28 19:54 36.07585 10.34411 1379 ft 160 kts 87°
2026-04-28 19:54 36.07604 10.35714 1200 ft 145 kts 88°
2026-04-28 19:54 36.07593 10.36518 1010 ft 138 kts 90°
2026-04-28 19:55 36.07572 10.38095 713 ft 137 kts 88°
2026-04-28 19:55 36.07581 10.38876 594 ft 138 kts 87°
2026-04-28 19:55 36.07594 10.40061 369 ft 136 kts 89°
2026-04-28 19:55 36.07579 10.41219 172 ft 134 kts 88°
2026-04-28 19:56 36.07583 10.42358 44 ft 129 kts 88°
2026-04-28 19:56 36.07578 10.43332 36 ft 92 kts 89°
2026-04-28 19:56 36.07576 10.43910 35 ft 44 kts 90°
2026-04-28 19:56 36.07600 10.44232 38 ft 33 kts 71°
2026-04-28 19:57 36.07670 10.44398 37 ft 15 kts 40°
2026-04-28 19:57 36.07732 10.44385 39 ft 7 kts 309°
2026-04-28 19:57 36.07745 10.44328 39 ft 7 kts 273°
2026-04-28 19:57 36.07744 10.44258 39 ft 13 kts 268°
2026-04-28 19:58 36.07743 10.44135 38 ft 15 kts 269°
2026-04-28 19:58 36.07742 10.44012 37 ft 14 kts 270°
2026-04-28 19:58 36.07742 10.43891 36 ft 14 kts 270°
2026-04-28 19:58 36.07780 10.43795 35 ft 12 kts 340°
2026-04-28 19:59 36.07873 10.43798 33 ft 16 kts
2026-04-28 19:59 36.07986 10.43799 31 ft 16 kts 358°
2026-04-28 19:59 36.08047 10.43726 30 ft 12 kts 265°
2026-04-28 19:59 36.08045 10.43627 30 ft 11 kts 270°
2026-04-28 20:00 36.08031 10.43536 29 ft 7 kts 224°
2026-04-28 20:00 36.07990 10.43528 29 ft 6 kts 176°
2026-04-28 20:00 36.07951 10.43530 30 ft 5 kts 179°
2026-04-28 20:00 36.07948 10.43530 30 ft 0 kts 179°